QPF
0.00 0.00 0.00 0.00 0.00 0.00 0.00 0.00 0.00 0.00 0.00 0.00 0.00 0.00 0.00 0.00 0.00 0.03 0.00 0.00 0.00 0.00 0.00 0.00 0.00 0.00 0.00 0.01 0.00 0.00 0.00 0.00 0.00 0.00 0.00 0.00 0.00 0.00 0.00 0.00 0.00 0.00 0.00 0.00 0.00 0.00 0.00 0.00 0.00
0.00 0.00 0.00 0.00 0.00 0.00 0.00 0.00 0.00 0.00 0.00 0.00 0.00 0.00 0.00 0.00 0.00 0.00 0.00 0.00 0.00 0.00 0.00 0.00 0.00 0.00 0.00 0.00 0.00 0.00 0.00 0.00 0.00 0.00 0.00 0.00 0.00 0.00 0.00 0.00 0.00 0.00 0.00 0.00 0.00 0.02 0.01 0.01 0.00
0.00 0.00 0.00 0.00 0.00 0.00 0.00 0.00 0.00 0.00 0.00 0.00 0.00 0.00 0.00 0.00 0.00 0.00 0.00 0.00 0.00 0.00 0.00 0.00 0.00 0.00 0.00 0.00 0.00 0.00 0.00 0.00 0.00 0.00 0.00 0.00 0.00 0.00 0.00 0.00 0.00 0.00 0.00 0.00 0.00 0.00 0.00 0.00 0.01
0.00 0.00 0.00 0.00 0.00 0.00 0.00 0.00 0.00 0.00 0.00 0.00 0.00 0.00 0.00 0.00 0.00 0.00 0.00 0.00 0.00 0.00 0.00 0.00 0.00 0.00 0.00 0.00 0.00 0.00 0.00 0.00 0.00 0.00 0.00 0.00 0.00 0.00 0.00 0.00 0.00 0.00 0.00 0.00 0.00 0.00 0.00 0.00 0.00
0.00 0.00 0.00 0.00 0.00 0.00 0.00 0.00 0.00 0.00 0.00 0.00 0.00 0.00 0.00 0.00 0.00 0.00 0.00 0.00 0.00 0.00 0.00 0.00 0.00 0.00 0.00 0.00 0.00 0.00 0.00 0.00 0.00 0.00 0.00 0.00 0.00 0.00 0.00 0.00 0.00 0.00 0.00 0.00 0.00 0.00 0.00 0.00 0.00
0.00 0.00 0.00 0.00 0.00 0.00 0.00 0.00 0.00 0.00 0.00 0.00 0.00 0.00 0.00 0.00 0.00 0.00 0.00 0.00 0.00 0.00 0.00 0.00 0.00 0.00 0.00 0.00 0.00 0.00 0.00 0.00 0.00 0.00 0.00 0.00 0.00 0.00 0.00 0.00 0.00 0.00 0.00 0.00 0.00 0.00 0.00 0.00 0.00
0.00 0.00 0.00 0.00 0.00 0.00 0.00 0.00 0.00 0.00 0.00 0.00 0.00 0.00 0.00 0.00 0.00 0.00 0.00 0.00 0.00 0.00 0.00 0.00 0.00 0.00 0.00 0.00 0.00 0.00 0.00 0.00 0.00 0.00 0.00 0.00 0.00 0.00 0.00 0.00 0.00 0.00 0.00 0.00 0.00 0.00 0.00 0.00 0.00
0.00 0.00 0.00 0.00 0.00 0.00 0.00 0.00 0.00 0.00 0.00 0.00 0.00 0.00 0.00 0.00 0.00 0.00 0.00 0.00 0.00 0.00 0.00 0.00 0.00 0.00 0.00 0.00 0.00 0.00 0.00 0.00 0.00 0.00 0.00 0.00 0.00 0.00 0.00 0.00 0.00 0.00 0.00 0.00 0.00 0.00 0.00 0.00 0.00
0.00 0.00 0.00 0.00 0.00 0.00 0.00 0.00 0.00 0.00 0.00 0.00 0.00 0.00 0.00 0.00 0.00 0.00 0.00 0.00 0.00 0.00 0.00 0.00 0.00 0.00 0.00 0.00 0.00 0.00 0.00 0.00 0.00 0.00 0.00 0.00 0.00 0.00 0.00 0.00 0.00 0.00 0.00 0.00 0.00 0.00 0.00 0.00 0.00
0.00 0.00 0.00 0.00 0.00 0.00 0.00 0.00 0.00 0.00 0.00 0.00 0.00 0.00 0.00 0.00 0.00 0.00 0.00 0.00 0.00 0.00 0.00 0.00 0.00 0.00 0.00 0.00 0.00 0.00 0.00 0.00 0.00 0.00 0.00 0.00 0.00 0.00 0.00 0.00 0.00 0.00 0.00 0.00 0.00 0.00 0.00 0.00 0.00
0.00 0.00 0.00 0.00 0.00 0.00 0.00 0.00 0.00 0.00 0.00 0.00 0.00 0.00 0.00 0.00 0.00 0.00 0.00 0.00 0.00 0.00 0.00 0.00 0.00 0.00 0.00 0.00 0.00 0.00 0.00 0.00 0.00 0.00 0.00 0.00 0.00 0.00 0.00 0.00 0.00 0.00 0.00 0.00 0.00 0.00 0.00 0.00 0.00
0.00 0.00 0.00 0.00 0.00 0.00 0.00 0.00 0.00 0.00 0.00 0.00 0.00 0.00 0.00 0.00 0.00 0.00 0.00 0.00 0.00 0.00 0.00 0.00 0.00 0.00 0.00 0.00 0.00 0.00 0.00 0.00 0.00 0.00 0.00 0.00 0.00 0.00 0.00 0.00 0.00 0.00 0.00 0.00 0.00 0.00 0.00 0.00 0.00
0.00 0.00 0.00 0.00 0.00 0.00 0.00 0.00 0.00 0.00 0.00 0.00 0.00 0.00 0.00 0.00 0.00 0.00 0.00 0.00 0.00 0.00 0.00 0.00 0.00 0.00 0.00 0.00 0.00 0.00 0.00 0.00 0.00 0.00 0.00 0.00 0.00 0.00 0.00 0.00 0.00 0.00 0.00 0.00 0.00 0.00 0.00 0.00 0.00
0.00 0.00 0.00 0.00 0.00 0.00 0.00 0.00 0.00 0.00 0.00 0.00 0.00 0.00 0.00 0.00 0.00 0.00 0.00 0.00 0.00 0.00 0.00 0.00 0.00 0.00 0.00 0.00 0.00 0.00 0.00 0.00 0.00 0.00 0.00 0.00 0.00 0.00 0.00 0.00 0.00 0.00 0.00 0.00 0.00 0.00 0.00 0.00 0.00
0.00 0.00 0.00 0.00 0.00 0.00 0.00 0.00 0.00 0.00 0.00 0.00 0.00 0.00 0.00 0.00 0.00 0.00 0.01 0.00 0.00 0.00 0.00 0.00 0.00 0.00 0.00 0.00 0.00 0.00 0.00 0.00 0.00 0.00 0.00 0.00 0.00 0.00 0.00 0.00 0.00 0.00 0.00 0.00 0.00 0.00 0.00 0.00 0.00
0.00 0.00 0.00 0.00 0.00 0.00 0.00 0.00 0.00 0.00 0.00 0.00 0.00 0.00 0.00 0.00 0.00 0.00 0.00 0.00 0.00 0.00 0.00 0.00 0.00 0.00 0.00 0.00 0.00 0.00 0.00 0.00 0.00 0.00 0.00 0.00 0.00 0.00 0.00 0.00 0.00 0.00 0.00 0.00 0.00 0.00 0.00 0.00 0.00
0.00 0.00 0.00 0.00 0.00 0.00 0.00 0.00 0.00 0.00 0.00 0.00 0.00 0.00 0.00 0.00 0.00 0.00 0.00 0.00 0.00 0.00 0.00 0.00 0.00 0.00 0.00 0.00 0.00 0.00 0.00 0.00 0.00 0.00 0.00 0.00 0.00 0.00 0.00 0.00 0.00 0.00 0.00 0.00 0.00 0.00 0.00 0.00 0.00
0.00 0.00 0.00 0.00 0.00 0.00 0.00 0.00 0.00 0.00 0.00 0.00 0.00 0.00 0.00 0.00 0.00 0.00 0.00 0.00 0.00 0.00 0.00 0.00 0.00 0.00 0.00 0.00 0.00 0.00 0.00 0.00 0.00 0.00 0.00 0.00 0.00 0.00 0.00 0.00 0.00 0.00 0.00 0.00 0.00 0.00 0.00 0.00 0.00
0.00 0.00 0.00 0.00 0.00 0.00 0.00 0.00 0.00 0.00 0.00 0.00 0.00 0.00 0.00 0.00 0.00 0.00 0.00 0.00 0.00 0.00 0.00 0.00 0.00 0.00 0.00 0.00 0.00 0.00 0.00 0.00 0.00 0.00 0.00 0.00 0.00 0.00 0.00 0.00 0.00 0.00 0.00 0.00 0.00 0.00 0.00 0.00 0.00
0.00 0.00 0.00 0.00 0.00 0.00 0.00 0.00 0.00 0.00 0.00 0.00 0.00 0.00 0.00 0.00 0.00 0.00 0.00 0.00 0.00 0.00 0.01 0.01 0.01 0.00 0.00 0.00 0.00 0.00 0.00 0.00 0.00 0.00 0.00 0.00 0.00 0.00 0.00 0.00 0.00 0.00 0.00 0.00 0.00 0.00 0.00 0.00 0.00
0.00 0.00 0.00 0.00 0.00 0.00 0.00 0.00 0.00 0.00 0.00 0.00 0.00 0.00 0.00 0.00 0.00 0.00 0.00 0.00 0.00 0.00 0.01 0.08 0.09 0.11 0.08 0.03 0.01 0.00 0.00 0.00 0.00 0.00 0.00 0.00 0.00 0.00 0.00 0.00 0.00 0.00 0.00 0.00 0.00 0.00 0.00 0.00 0.00
0.00 0.00 0.00 0.00 0.00 0.00 0.00 0.00 0.00 0.00 0.00 0.00 0.00 0.00 0.00 0.00 0.00 0.00 0.00 0.00 0.00 0.00 0.00 0.03 0.16 0.22 0.20 0.17 0.13 0.04 0.02 0.01 0.00 0.00 0.00 0.00 0.00 0.00 0.00 0.00 0.00 0.00 0.00 0.00 0.00 0.00 0.00 0.00 0.00
0.00 0.00 0.00 0.00 0.00 0.00 0.00 0.00 0.00 0.00 0.00 0.00 0.00 0.00 0.00 0.00 0.00 0.00 0.00 0.00 0.00 0.00 0.00 0.00 0.04 0.13 0.20 0.26 0.22 0.17 0.12 0.08 0.06 0.02 0.00 0.00 0.00 0.00 0.00 0.00 0.00 0.01 0.02 0.02 0.03 0.02 0.01 0.00 0.00
0.00 0.00 0.00 0.00 0.00 0.00 0.00 0.00 0.00 0.00 0.00 0.00 0.00 0.00 0.00 0.00 0.00 0.00 0.00 0.00 0.00 0.00 0.00 0.00 0.00 0.01 0.05 0.07 0.09 0.08 0.06 0.05 0.04 0.01 0.00 0.00 0.00 0.00 0.00 0.00 0.00 0.02 0.05 0.06 0.05 0.05 0.04 0.02 0.01
0.00 0.00 0.00 0.00 0.00 0.00 0.00 0.00 0.00 0.00 0.00 0.00 0.00 0.00 0.00 0.00 0.00 0.00 0.00 0.00 0.00 0.00 0.00 0.00 0.00 0.00 0.01 0.00 0.00 0.02 0.05 0.03 0.02 0.02 0.02 0.02 0.01 0.00 0.00 0.00 0.00 0.00 0.01 0.02 0.04 0.05 0.05 0.03 0.03
0.00 0.00 0.00 0.00 0.00 0.00 0.00 0.00 0.00 0.00 0.00 0.00 0.00 0.00 0.00 0.00 0.00 0.00 0.00 0.00 0.00 0.00 0.00 0.00 0.00 0.00 0.00 0.00 0.01 0.01 0.01 0.02 0.02 0.01 0.02 0.02 0.01 0.01 0.01 0.02 0.01 0.01 0.01 0.02 0.02 0.03 0.03 0.04 0.04
0.00 0.00 0.00 0.00 0.00 0.00 0.00 0.00 0.00 0.00 0.00 0.00 0.00 0.00 0.00 0.00 0.00 0.00 0.00 0.00 0.00 0.00 0.00 0.00 0.00 0.00 0.00 0.00 0.00 0.00 0.00 0.01 0.01 0.01 0.01 0.00 0.00 0.00 0.00 0.00 0.01 0.01 0.01 0.01 0.02 0.02 0.03 0.04 0.03
0.00 0.00 0.00 0.00 0.00 0.00 0.00 0.00 0.00 0.00 0.00 0.00 0.00 0.00 0.00 0.00 0.00 0.00 0.00 0.00 0.00 0.00 0.00 0.00 0.00 0.00 0.00 0.00 0.00 0.00 0.00 0.00 0.00 0.01 0.01 0.01 0.00 0.00 0.00 0.00 0.00 0.00 0.00 0.00 0.00 0.00 0.00 0.01 0.01
0.00 0.00 0.00 0.00 0.00 0.00 0.00 0.00 0.00 0.00 0.00 0.00 0.00 0.00 0.00 0.00 0.00 0.00 0.00 0.00 0.00 0.00 0.00 0.00 0.00 0.00 0.00 0.00 0.00 0.00 0.00 0.00 0.00 0.00 0.00 0.00 0.00 0.00 0.00 0.00 0.00 0.00 0.00 0.00 0.00 0.00 0.00 0.00 0.00
0.00 0.00 0.00 0.00 0.00 0.00 0.00 0.00 0.00 0.00 0.00 0.00 0.00 0.00 0.00 0.00 0.00 0.00 0.00 0.00 0.00 0.00 0.00 0.00 0.00 0.00 0.00 0.00 0.00 0.00 0.00 0.00 0.00 0.00 0.00 0.00 0.00 0.00 0.00 0.00 0.00 0.00 0.00 0.00 0.00 0.00 0.00 0.00 0.00
MSLP
1010.51 1009.98 1008.95 1007.04 1005.83 1002.64 1000.82 1000.38 1000.68 1000.26 1000.70 1001.64 1001.87 1001.86 1002.00 1002.41 1002.84 1004.91 1006.39 1007.05 1007.60 1009.15 1010.97 1012.46 1013.23 1013.64 1014.01 1014.36 1014.79 1015.24 1015.59 1015.91 1016.32 1016.64 1016.88 1017.07 1017.25 1017.42 1017.55 1017.67 1017.80 1017.93 1018.03 1018.20 1018.36 1018.50 1018.68 1018.78 1018.91
1008.86 1008.56 1007.41 1005.62 1003.82 1000.88 999.56 1000.01 1000.71 1000.68 1001.63 1002.27 1002.46 1002.66 1002.64 1002.88 1004.07 1005.72 1006.61 1007.29 1007.90 1009.38 1010.91 1011.80 1013.29 1013.75 1014.12 1014.49 1014.97 1015.40 1015.77 1016.10 1016.52 1016.79 1017.09 1017.31 1017.47 1017.60 1017.73 1017.82 1017.95 1018.07 1018.16 1018.41 1018.53 1018.70 1018.85 1019.04 1019.17
1008.73 1007.42 1006.17 1004.21 1002.42 1000.45 999.15 1000.21 1001.02 1001.50 1002.18 1002.66 1002.60 1003.06 1002.97 1003.52 1004.97 1005.65 1006.19 1007.34 1008.10 1009.56 1010.82 1011.90 1013.32 1013.89 1014.41 1014.64 1015.14 1015.62 1015.90 1016.26 1016.64 1016.99 1017.24 1017.56 1017.71 1017.80 1017.93 1018.02 1018.07 1018.18 1018.42 1018.59 1018.76 1018.88 1019.02 1019.21 1019.42
1007.75 1006.89 1005.93 1003.28 1000.92 999.63 999.32 1000.24 1001.04 1001.31 1002.02 1002.80 1003.03 1002.46 1003.82 1004.93 1005.27 1005.79 1007.19 1007.68 1008.46 1009.35 1010.53 1012.72 1013.50 1014.09 1014.62 1014.95 1015.37 1015.80 1016.13 1016.42 1016.75 1017.06 1017.41 1017.65 1017.85 1017.98 1018.12 1018.17 1018.25 1018.31 1018.55 1018.74 1018.89 1019.06 1019.20 1019.33 1019.54
1006.63 1005.23 1003.71 1001.93 1000.81 999.62 999.32 1000.29 1001.31 1001.16 1001.58 1002.50 1003.24 1002.61 1003.61 1005.41 1005.85 1006.43 1007.47 1007.81 1008.46 1009.22 1010.38 1012.81 1013.83 1014.24 1014.82 1015.20 1015.58 1015.97 1016.28 1016.62 1016.96 1017.31 1017.56 1017.72 1017.97 1018.13 1018.26 1018.38 1018.47 1018.49 1018.62 1018.74 1018.88 1019.04 1019.25 1019.42 1019.53
1005.66 1004.68 1002.53 1000.86 999.69 999.25 998.85 999.99 1000.60 1001.66 1001.99 1002.67 1003.31 1003.19 1003.69 1005.56 1006.05 1006.82 1007.53 1007.83 1008.40 1009.24 1010.56 1012.69 1014.10 1014.52 1014.89 1015.36 1015.76 1016.03 1016.42 1016.74 1017.07 1017.45 1017.71 1017.87 1017.99 1018.31 1018.42 1018.56 1018.63 1018.67 1018.67 1018.85 1018.95 1019.03 1019.19 1019.37 1019.50
1004.59 1003.28 1001.81 1000.44 998.92 998.36 998.73 999.92 1000.35 1000.93 1001.65 1002.01 1003.08 1002.89 1004.18 1005.22 1006.27 1006.90 1007.44 1007.97 1008.40 1009.22 1010.55 1012.55 1013.67 1014.54 1015.17 1015.43 1015.87 1016.23 1016.51 1016.82 1017.19 1017.51 1017.83 1018.01 1018.19 1018.38 1018.59 1018.67 1018.74 1018.74 1018.79 1018.89 1018.91 1019.01 1019.13 1019.28 1019.40
1004.45 1003.10 1001.26 1000.31 999.23 998.36 998.64 999.54 1000.47 1001.09 1001.40 1002.39 1003.18 1002.81 1003.58 1005.16 1006.54 1007.00 1007.42 1007.87 1008.24 1009.11 1010.29 1011.91 1012.86 1013.82 1014.70 1015.16 1016.00 1016.51 1016.82 1017.04 1017.36 1017.62 1017.91 1018.05 1018.27 1018.41 1018.53 1018.64 1018.72 1018.66 1018.82 1018.95 1018.97 1019.01 1019.01 1019.11 1019.22
1004.42 1002.99 1000.94 999.96 999.06 998.92 999.09 999.54 1000.43 1001.21 1001.70 1002.31 1003.13 1003.64 1004.86 1005.74 1006.66 1006.96 1007.34 1007.80 1008.07 1008.90 1009.74 1011.13 1012.05 1013.02 1013.84 1014.32 1015.68 1016.62 1017.06 1017.36 1017.58 1017.75 1017.90 1018.16 1017.45 1018.02 1018.24 1018.26 1018.56 1018.64 1018.77 1018.86 1018.93 1019.02 1018.98 1018.90 1018.97
1003.99 1002.59 1000.75 999.72 999.47 999.43 999.79 999.79 1000.47 1001.18 1002.12 1002.27 1002.97 1003.52 1005.42 1005.75 1006.63 1006.52 1006.89 1007.45 1008.07 1008.69 1009.18 1010.40 1011.34 1012.25 1013.05 1013.72 1014.99 1015.96 1016.48 1016.78 1017.03 1017.09 1017.40 1017.21 1016.52 1016.95 1017.09 1017.95 1018.64 1018.73 1018.76 1018.82 1018.77 1018.72 1018.58 1018.57 1017.79
1003.35 1002.20 1000.53 1000.23 1000.92 1000.99 1000.74 1000.58 1000.85 1001.35 1002.23 1002.54 1002.89 1003.10 1004.32 1005.33 1006.17 1006.62 1006.43 1006.62 1007.46 1008.34 1008.91 1009.80 1010.84 1011.77 1012.09 1012.73 1014.08 1015.05 1015.47 1015.97 1016.40 1016.59 1016.83 1016.65 1015.85 1016.63 1016.91 1017.47 1018.06 1018.18 1018.61 1018.09 1018.31 1018.20 1017.65 1016.60 1016.27
1002.82 1002.13 1001.71 1001.16 1001.25 1001.41 1001.32 1001.28 1001.27 1001.71 1001.96 1002.46 1002.70 1002.97 1003.77 1005.07 1005.62 1006.61 1007.00 1006.59 1007.04 1007.99 1008.73 1009.57 1010.56 1011.58 1011.59 1011.91 1013.22 1014.08 1014.36 1015.02 1015.50 1015.78 1016.35 1016.17 1015.84 1016.34 1016.53 1016.11 1016.66 1016.95 1017.15 1016.64 1017.11 1016.81 1016.32 1015.95 1015.88
1002.14 1002.13 1001.51 1001.58 1001.48 1001.45 1001.40 1001.27 1001.32 1001.46 1002.28 1003.12 1003.44 1003.50 1003.81 1004.39 1005.46 1006.34 1007.47 1007.52 1007.35 1007.91 1008.68 1009.42 1010.25 1011.31 1011.73 1011.94 1012.59 1013.44 1013.71 1014.21 1014.47 1014.98 1015.79 1015.78 1016.01 1015.89 1016.02 1015.72 1015.62 1015.78 1015.90 1015.98 1016.28 1015.97 1016.72 1016.83 1016.71
1001.68 1001.85 1001.24 1001.24 1001.17 1001.31 1001.53 1001.32 1001.52 1002.09 1003.22 1003.39 1003.41 1002.95 1003.36 1004.28 1005.06 1006.28 1007.25 1007.96 1008.30 1008.41 1008.97 1009.64 1010.32 1011.33 1011.76 1012.03 1012.51 1012.95 1013.30 1013.41 1013.88 1014.22 1014.82 1015.91 1015.81 1015.81 1015.85 1015.81 1015.84 1015.64 1015.42 1015.69 1015.89 1016.04 1016.83 1016.74 1016.58
1002.02 1001.91 1001.33 1001.15 1001.08 1001.11 1001.62 1001.50 1001.52 1002.83 1003.00 1003.78 1003.61 1003.65 1004.42 1004.68 1004.97 1006.34 1007.58 1007.73 1008.29 1008.91 1009.35 1010.14 1010.55 1011.28 1012.18 1012.28 1012.61 1012.84 1012.78 1013.15 1013.56 1013.83 1014.58 1015.49 1015.77 1015.68 1015.92 1015.71 1015.89 1015.70 1015.69 1015.73 1015.86 1016.39 1017.04 1017.00 1016.64
1001.82 1001.38 1000.34 999.71 1001.05 1001.20 1001.95 1000.99 1002.77 1003.40 1003.52 1004.17 1004.56 1004.62 1005.01 1006.29 1006.19 1007.12 1008.54 1008.35 1008.67 1009.23 1009.75 1010.14 1010.54 1010.91 1012.15 1012.26 1012.52 1012.53 1012.69 1013.08 1013.32 1013.80 1014.14 1015.09 1015.59 1015.78 1016.23 1015.56 1015.58 1015.62 1015.89 1016.06 1015.87 1016.60 1017.23 1017.46 1017.24
1000.75 999.75 999.66 1000.03 1000.94 1000.92 1001.92 1001.61 1003.68 1003.99 1004.35 1004.92 1005.31 1005.66 1005.88 1007.33 1008.44 1008.76 1009.09 1009.14 1009.09 1009.46 1009.89 1010.29 1010.54 1010.77 1011.45 1012.54 1012.42 1012.73 1012.63 1012.86 1013.04 1013.29 1013.72 1014.60 1015.36 1015.51 1015.64 1015.54 1015.26 1015.69 1015.84 1016.14 1016.23 1016.70 1017.15 1017.20 1017.40
999.01 999.31 999.69 999.84 1000.65 1001.28 1001.23 1001.87 1003.93 1004.46 1004.94 1005.80 1006.51 1007.06 1008.16 1009.39 1010.18 1010.33 1010.22 1010.08 1009.49 1009.22 1009.71 1010.35 1010.70 1010.91 1011.18 1011.94 1012.63 1012.80 1012.66 1012.50 1012.79 1012.77 1013.04 1013.76 1014.75 1015.19 1015.41 1015.24 1015.27 1015.54 1016.05 1016.21 1016.33 1016.60 1016.82 1017.10 1017.62
1000.58 1000.48 999.94 1000.29 1001.38 1001.51 1001.10 1001.97 1003.96 1004.97 1005.41 1006.39 1007.30 1008.26 1009.24 1010.09 1010.87 1010.97 1010.73 1010.45 1010.10 1009.54 1009.43 1009.92 1010.55 1010.97 1011.50 1011.73 1012.06 1012.21 1012.26 1012.21 1012.30 1012.48 1012.86 1013.29 1013.98 1014.71 1015.17 1015.27 1015.00 1015.58 1016.15 1016.29 1016.43 1016.74 1017.19 1017.51 1017.53
1001.40 1000.90 1000.36 1000.54 1001.69 1002.03 1001.64 1002.60 1004.51 1005.27 1006.23 1007.05 1007.90 1008.91 1009.76 1010.33 1010.89 1011.06 1011.38 1011.33 1011.00 1010.46 1010.26 1010.13 1010.61 1011.10 1011.44 1011.33 1011.66 1011.92 1011.84 1011.73 1011.76 1011.92 1012.37 1012.98 1013.54 1014.19 1014.54 1014.97 1014.93 1015.11 1016.17 1016.32 1016.56 1016.93 1016.95 1017.72 1017.51
1001.74 1001.25 1001.13 1001.00 1001.35 1002.05 1001.81 1002.03 1003.90 1005.47 1006.63 1007.68 1008.54 1009.43 1010.12 1010.75 1011.08 1011.17 1011.32 1011.84 1011.61 1010.81 1010.58 1010.61 1010.57 1011.11 1011.59 1011.50 1011.58 1011.73 1011.66 1011.58 1011.54 1011.73 1012.18 1012.52 1013.18 1013.79 1014.41 1014.56 1015.03 1015.01 1015.75 1015.86 1016.75 1017.18 1017.21 1016.90 1017.06
1002.63 1002.16 1002.14 1002.16 1002.01 1000.92 1000.42 1000.66 1002.21 1004.50 1006.25 1007.40 1008.32 1009.05 1009.80 1010.61 1011.25 1011.44 1011.65 1012.14 1012.32 1012.35 1011.63 1011.55 1011.25 1011.53 1011.79 1011.92 1011.91 1011.64 1011.39 1011.02 1011.33 1011.62 1012.34 1012.80 1013.52 1013.94 1014.28 1014.58 1014.88 1015.31 1015.66 1015.88 1016.24 1016.92 1017.02 1017.10 1016.47
1003.47 1003.36 1003.22 1002.74 1002.15 1001.55 1000.75 1001.27 1001.30 1003.44 1005.13 1006.85 1008.14 1008.99 1009.60 1010.60 1011.64 1011.98 1012.22 1013.05 1013.45 1013.38 1013.05 1012.95 1012.91 1013.01 1013.18 1012.64 1012.23 1011.67 1011.91 1011.65 1012.40 1012.64 1012.81 1013.01 1013.45 1013.88 1014.60 1014.91 1015.06 1015.56 1016.02 1016.07 1016.13 1016.69 1017.03 1016.81 1016.55
1004.29 1003.78 1002.82 1002.40 1001.78 1000.85 1000.45 1000.41 1000.19 1001.96 1003.41 1006.05 1007.78 1008.74 1009.49 1009.96 1011.39 1012.65 1012.95 1013.39 1014.25 1014.24 1013.98 1013.79 1013.87 1014.02 1013.89 1013.93 1013.94 1012.64 1011.54 1011.22 1013.17 1013.35 1013.50 1013.19 1013.76 1013.86 1013.71 1014.00 1014.99 1015.89 1016.45 1016.63 1016.84 1016.88 1017.04 1017.13 1016.79
1004.29 1003.34 1001.83 1000.84 1000.02 999.15 999.30 1000.10 1001.50 1003.79 1004.99 1006.12 1007.68 1008.54 1009.37 1010.03 1011.11 1013.21 1013.86 1013.96 1014.30 1014.67 1014.93 1015.02 1015.03 1015.02 1014.96 1014.74 1014.68 1014.63 1014.46 1013.96 1013.90 1014.01 1013.75 1013.63 1014.21 1014.29 1014.22 1014.84 1015.00 1015.82 1016.70 1017.13 1017.03 1017.09 1017.33 1017.34 1017.36
1003.81 1003.79 1002.45 1000.85 999.66 999.41 1000.49 1000.64 1001.50 1004.29 1006.08 1007.28 1008.01 1008.67 1009.46 1010.37 1011.31 1013.57 1014.77 1015.14 1015.40 1015.54 1015.36 1015.05 1015.35 1015.66 1015.80 1015.81 1015.64 1015.37 1015.24 1015.27 1015.17 1015.14 1014.66 1014.51 1014.95 1015.35 1015.71 1015.43 1015.78 1016.10 1016.48 1017.07 1017.15 1017.72 1017.73 1017.71 1017.62
1004.05 1004.00 1003.66 1002.89 1001.88 1000.95 1000.30 1001.87 1003.25 1004.69 1006.03 1007.20 1007.94 1008.76 1009.63 1010.61 1011.63 1013.60 1014.77 1015.32 1015.68 1015.80 1015.85 1015.87 1015.89 1015.88 1015.95 1016.08 1016.10 1016.03 1016.03 1015.87 1015.73 1015.85 1015.78 1015.85 1016.02 1016.18 1016.74 1016.77 1016.74 1016.48 1017.06 1017.24 1017.51 1017.82 1017.90 1018.05 1018.04
1005.25 1004.64 1003.99 1003.47 1002.19 1001.00 1000.34 1000.26 1000.67 1003.82 1005.25 1006.69 1007.81 1008.60 1009.68 1010.47 1011.35 1012.63 1014.14 1014.99 1015.49 1015.74 1015.77 1015.99 1016.17 1016.22 1016.33 1016.43 1016.41 1016.42 1016.47 1016.55 1016.67 1016.74 1016.53 1016.78 1016.95 1017.09 1017.39 1017.63 1017.88 1018.47 1017.04 1017.95 1017.98 1018.45 1018.34 1017.87 1018.73
1004.80 1004.65 1004.67 1004.19 1003.43 1002.24 1001.60 1001.46 1002.46 1003.43 1004.90 1006.12 1007.66 1008.69 1009.56 1010.28 1010.97 1011.87 1012.95 1014.12 1014.79 1015.39 1015.58 1016.02 1016.17 1016.33 1016.50 1016.62 1016.77 1016.78 1016.77 1016.90 1017.08 1017.16 1017.19 1017.36 1017.35 1017.71 1017.80 1018.28 1018.39 1018.23 1018.05 1017.57 1018.08 1018.86 1019.42 1018.24 1019.19
1005.03 1004.70 1004.36 1004.09 1003.62 1003.27 1003.32 1002.79 1003.91 1004.69 1005.62 1006.80 1007.46 1008.55 1009.39 1010.20 1010.63 1011.33 1012.32 1013.41 1014.12 1015.00 1015.35 1015.89 1016.28 1016.38 1016.71 1017.18 1017.44 1017.54 1017.53 1017.50 1017.56 1017.65 1017.91 1017.96 1018.08 1018.08 1018.30 1018.65 1018.60 1018.66 1018.78 1018.92 1019.01 1019.37 1019.56 1019.18 1019.60
Thickness
5813 5816 5824 5825 5795 5822 5821 5834 5850 5846 5843 5853 5856 5848 5843 5847 5831 5801 5845 5846 5843 5829 5813 5801 5795 5791 5786 5783 5780 5777 5773 5770 5767 5764 5762 5761 5759 5757 5756 5755 5753 5753 5751 5749 5748 5747 5746 5746 5745
5824 5825 5827 5818 5795 5807 5834 5848 5831 5844 5846 5851 5849 5845 5838 5829 5845 5833 5832 5842 5839 5825 5812 5804 5794 5789 5785 5782 5778 5775 5772 5769 5765 5762 5759 5758 5757 5755 5753 5753 5752 5752 5751 5749 5748 5747 5746 5745 5744
5823 5832 5810 5807 5806 5807 5833 5836 5832 5841 5847 5840 5838 5847 5841 5830 5837 5835 5845 5839 5834 5821 5811 5802 5791 5787 5782 5780 5777 5773 5771 5768 5764 5760 5758 5755 5753 5752 5752 5751 5752 5752 5749 5748 5746 5746 5746 5744 5742
5819 5816 5812 5797 5806 5841 5844 5837 5838 5837 5841 5843 5840 5831 5841 5843 5835 5841 5836 5833 5826 5820 5810 5794 5787 5783 5778 5776 5773 5770 5767 5766 5763 5760 5756 5754 5752 5751 5750 5750 5750 5751 5749 5747 5746 5745 5744 5743 5741
5823 5816 5795 5802 5810 5838 5852 5844 5838 5833 5834 5832 5834 5827 5827 5834 5841 5838 5828 5826 5818 5816 5807 5789 5781 5779 5774 5772 5769 5766 5764 5761 5759 5756 5755 5753 5751 5749 5749 5749 5748 5749 5749 5748 5747 5746 5745 5743 5743
5799 5810 5792 5796 5819 5841 5858 5850 5842 5828 5831 5828 5822 5825 5826 5836 5833 5829 5825 5821 5816 5810 5801 5785 5775 5773 5771 5767 5765 5764 5762 5760 5757 5753 5751 5751 5751 5747 5747 5747 5747 5747 5747 5746 5746 5747 5746 5745 5744
5797 5800 5796 5810 5829 5841 5847 5851 5838 5833 5829 5825 5834 5818 5821 5827 5830 5828 5822 5818 5814 5807 5797 5781 5775 5769 5765 5765 5761 5759 5759 5758 5755 5752 5749 5749 5747 5746 5744 5744 5744 5745 5746 5746 5746 5747 5747 5746 5746
5804 5804 5801 5812 5814 5829 5853 5846 5845 5834 5828 5843 5837 5814 5810 5825 5826 5825 5821 5815 5813 5806 5797 5783 5777 5771 5765 5763 5757 5753 5752 5753 5751 5749 5747 5747 5745 5745 5744 5744 5743 5745 5745 5745 5746 5746 5748 5747 5747
5809 5784 5791 5807 5819 5825 5848 5835 5845 5848 5831 5832 5830 5824 5823 5825 5822 5816 5811 5808 5808 5804 5800 5788 5780 5774 5768 5766 5756 5749 5747 5746 5745 5746 5746 5743 5749 5745 5744 5746 5744 5744 5745 5745 5744 5744 5745 5749 5749
5786 5781 5799 5830 5830 5823 5831 5835 5832 5826 5817 5818 5819 5828 5818 5819 5811 5808 5806 5800 5799 5797 5798 5792 5783 5776 5771 5767 5759 5751 5747 5746 5745 5746 5747 5748 5754 5751 5749 5745 5741 5742 5743 5744 5745 5746 5748 5750 5755
5788 5781 5815 5819 5817 5820 5818 5822 5833 5818 5800 5812 5808 5818 5818 5813 5808 5804 5808 5809 5803 5801 5799 5796 5787 5779 5776 5772 5764 5755 5752 5749 5747 5746 5747 5750 5757 5750 5749 5746 5742 5743 5742 5747 5747 5749 5753 5762 5767
5776 5796 5800 5809 5813 5810 5806 5821 5815 5814 5813 5822 5826 5829 5822 5809 5806 5801 5798 5805 5803 5800 5797 5795 5788 5779 5780 5777 5766 5760 5758 5754 5751 5750 5747 5750 5755 5751 5751 5755 5750 5749 5749 5756 5753 5756 5763 5769 5771
5784 5788 5801 5805 5807 5809 5814 5810 5810 5814 5819 5822 5819 5819 5815 5814 5807 5804 5795 5796 5801 5796 5793 5792 5789 5779 5776 5775 5770 5761 5760 5756 5756 5755 5748 5750 5750 5753 5752 5757 5756 5756 5757 5758 5757 5761 5755 5756 5758
5796 5792 5799 5803 5803 5806 5798 5805 5808 5805 5812 5809 5812 5816 5818 5810 5808 5801 5793 5787 5787 5790 5788 5786 5784 5778 5774 5772 5768 5763 5760 5760 5756 5756 5754 5746 5749 5749 5751 5753 5753 5754 5758 5757 5757 5757 5750 5752 5755
5789 5774 5789 5793 5798 5796 5802 5787 5791 5801 5806 5797 5801 5807 5803 5805 5807 5795 5788 5788 5787 5784 5784 5778 5778 5775 5767 5767 5764 5762 5762 5758 5756 5754 5749 5744 5744 5746 5744 5748 5749 5750 5752 5753 5753 5750 5746 5747 5750
5772 5778 5769 5798 5790 5794 5788 5772 5780 5794 5792 5786 5787 5793 5792 5786 5789 5789 5779 5782 5783 5779 5775 5776 5775 5774 5763 5763 5762 5761 5760 5757 5755 5751 5750 5743 5741 5742 5738 5744 5746 5746 5746 5745 5749 5745 5740 5738 5741
5774 5765 5773 5773 5788 5786 5777 5765 5768 5783 5779 5773 5777 5779 5779 5771 5767 5769 5771 5771 5773 5771 5769 5768 5770 5769 5765 5757 5758 5756 5757 5755 5753 5752 5749 5744 5739 5740 5739 5740 5744 5741 5741 5740 5741 5739 5736 5734 5734
5778 5774 5774 5771 5772 5776 5774 5765 5761 5767 5766 5759 5759 5760 5752 5745 5742 5748 5752 5756 5765 5769 5767 5763 5762 5762 5762 5755 5751 5750 5753 5755 5751 5753 5751 5746 5739 5737 5737 5738 5738 5737 5733 5734 5735 5734 5735 5732 5728
5766 5763 5767 5770 5767 5764 5769 5758 5750 5753 5753 5747 5745 5741 5737 5733 5735 5738 5743 5748 5752 5759 5761 5759 5755 5755 5752 5749 5745 5744 5745 5749 5750 5749 5746 5744 5739 5735 5733 5732 5735 5730 5726 5726 5729 5728 5724 5720 5724
5755 5753 5760 5767 5760 5756 5756 5743 5740 5742 5737 5736 5732 5727 5725 5726 5726 5730 5730 5733 5736 5742 5746 5749 5747 5745 5745 5747 5744 5742 5742 5746 5748 5747 5744 5741 5736 5731 5730 5727 5730 5729 5717 5718 5719 5718 5718 5712 5717
5746 5746 5748 5750 5754 5753 5752 5744 5728 5730 5728 5725 5722 5719 5716 5713 5714 5720 5723 5720 5725 5733 5737 5737 5740 5737 5735 5738 5737 5736 5738 5738 5739 5740 5739 5739 5732 5727 5722 5723 5718 5724 5716 5714 5707 5706 5706 5708 5710
5718 5746 5742 5734 5730 5726 5767 5730 5731 5721 5715 5714 5713 5713 5711 5708 5707 5710 5713 5711 5711 5713 5724 5724 5727 5725 5725 5726 5725 5725 5726 5728 5730 5729 5725 5723 5719 5717 5715 5713 5711 5710 5711 5707 5707 5700 5701 5698 5702
5717 5733 5726 5727 5724 5728 5741 5727 5748 5729 5708 5704 5706 5704 5704 5700 5694 5695 5698 5694 5694 5696 5699 5703 5704 5704 5703 5712 5713 5712 5711 5713 5708 5708 5709 5710 5710 5707 5702 5699 5699 5697 5697 5698 5698 5694 5691 5694 5694
5725 5720 5728 5729 5727 5708 5733 5740 5753 5732 5723 5703 5702 5698 5697 5697 5690 5681 5685 5683 5677 5680 5684 5686 5686 5686 5689 5689 5688 5689 5690 5690 5690 5693 5681 5690 5691 5696 5697 5694 5688 5682 5682 5684 5682 5686 5684 5682 5686
5715 5712 5707 5712 5720 5721 5755 5738 5731 5717 5714 5705 5693 5692 5691 5690 5685 5669 5663 5667 5667 5664 5664 5665 5666 5667 5669 5671 5671 5668 5663 5665 5672 5671 5674 5674 5671 5676 5678 5673 5675 5672 5666 5666 5669 5671 5671 5673 5670
5709 5704 5700 5689 5716 5732 5733 5713 5723 5710 5705 5695 5691 5686 5682 5678 5674 5656 5646 5645 5644 5645 5649 5654 5652 5650 5649 5649 5650 5650 5648 5646 5647 5650 5654 5654 5650 5648 5647 5655 5657 5654 5652 5648 5651 5648 5653 5655 5657
5700 5692 5709 5695 5713 5708 5728 5711 5708 5701 5691 5685 5680 5675 5669 5664 5660 5644 5637 5635 5634 5634 5634 5634 5634 5635 5634 5633 5633 5632 5630 5630 5631 5629 5631 5631 5631 5632 5628 5632 5633 5635 5630 5629 5627 5630 5634 5635 5636
5690 5703 5685 5693 5672 5680 5716 5725 5713 5686 5683 5680 5671 5665 5659 5656 5652 5645 5631 5626 5624 5623 5624 5621 5619 5619 5617 5616 5614 5612 5611 5609 5607 5606 5610 5609 5609 5609 5609 5609 5609 5603 5612 5605 5609 5609 5613 5621 5614
5684 5682 5683 5687 5688 5678 5680 5700 5707 5694 5685 5676 5664 5658 5652 5648 5646 5642 5634 5626 5621 5616 5614 5609 5607 5604 5602 5600 5597 5594 5591 5588 5585 5585 5587 5587 5589 5589 5589 5588 5590 5591 5594 5598 5596 5590 5589 5600 5595
5684 5680 5684 5669 5672 5682 5673 5679 5693 5684 5675 5664 5658 5651 5648 5642 5642 5638 5631 5623 5617 5608 5605 5599 5594 5591 5587 5581 5575 5572 5569 5567 5563 5561 5560 5561 5564 5566 5566 5567 5571 5574 5573 5573 5572 5572 5571 5576 5577